{"data":{"norad_id":53057,"intl_designator":"2022-077Q","name":"STARLINK-4252","alt_names":[],"object_type":"PAYLOAD","status":"ACTIVE","operator":null,"country":"US","launch_date":"2022-07-11","launch_site_code":"AFWTR","launch_vehicle":null,"mission":null,"orbit_class":"UNKNOWN","rcs_meters":null,"size_class":null,"mass_kg":null,"dimensions":null,"purposes":["comms"],"wikipedia_slug":null,"has_3d_model":false,"image_url":null,"decayed_at":null,"tle_current":{"epoch":"2026-09-19T22:15:10.345248Z","epoch_age_seconds":118957,"freshness":"FRESH","line1":"1 53057U 22077Q   26262.92720307  .00000141  00000+0  67116-5 0  9997","line2":"2 53057  97.2847  78.6759 0001322  92.8079 267.3315 15.33431188230261","mean_motion":15.33431188,"eccentricity":0.0001322,"inclination_deg":97.2847,"raan_deg":78.6759,"arg_perigee_deg":92.8079,"mean_anomaly_deg":267.3315,"bstar":6.7116e-6,"rev_number":23026,"period_min":93.907050493615,"perigee_km":464.67952962918,"apogee_km":466.48900953286,"semimajor_km":6843.721269581,"source":"CELESTRAK","updated_at":"2026-09-20T09:00:40.152678Z"}}}